CZ-4C DEB, 43421

Orbit data source: Space-Track

CZ-4C DEB, 43421 is space debris in LEO originally from a launch on Wed, 10 Dec 2014 UTC launched from the Jiuquan Satellite Launch Center, China (JSC). Debris objects in space refer to the collection of defunct objects orbiting the Earth. Examples of debris include non-operational satellites, rocket bodies, and fragments generated from explosions, collisions, or faulty payload assembly.

Loading next visibility...
Identifier
43421, 2014-080K
Orbit
LEO
Country
Flag of CNCN / PRC
Related business
Manufacturer
SAST
Mission
Spacecraft
Bus & Motor
Unknown
Mass
Unknown
Launch date (UTC)
2014-12-10 (12 years ago)
Launch vehicle
Unknown
Launch site
Jiuquan Satellite Launch Center, China (JSC)
Object type
Payload
Rocket body
Debris
Shape & HBR
Unknown shape, 0.1 m
Radar Cross Section
Small (<0.1 m²)

Expand to show TLE details & history
Last TLE update: 1 week ago

TLE from 1 week ago
0 CZ-4C DEB
1 43421U 14080K   26164.19501882 -.00000032  00000-0  64710-4 0  9998
2 43421  63.3873 340.4081 0377242  11.2088 349.7053 13.44786177488640
Epoch: 2026-06-13T04:40Z
TLE epoch observation values (Epoch: 2026-06-13T04:40:49.626Z)
Latitude
0.00005°
Longitude
8.68775°
Altitude
816.353 km
Speed
7.582 km/s
True Right ascension
22h 41m 37s
True Declination
0° 00' 00"
Sunlit
Object was in daylight at epoch
Visualization orbit readout
Latitude
Unknown
Longitude
Unknown
Altitude
Unknown
Speed
Unknown
Apparent Right ascension
Unknown
Apparent Declination
Unknown
Sunlit
N/A
Visualization observer readout
Local Sidereal Time
23:21:03
Azimuth
Unknown
Elevation
Unknown
Doppler factor
Unknown
Orbital elements
Apogee altitude
1,372.074 km
Perigee altitude
808.59 km
Semi-major axis
7,468.469 km
Eccentricity
0.03772
Inclination
63.3873°
RAAN
340.4081°
Arg. of periapsis
11.2088°
True anomaly
348.89527°
Mean anomaly
349.7053°
Eccentric anomaly
349.30415°
Mean motion
3.36276 °/min
Orbital period
107.05 mins
BSTAR
0.00006471
Loading maneuver chart data...
Computing Atmospheric mass density...
Loading historical data...
Loading historical data...
Loading historical data...
Loading historical data...
Loading historical data...
Loading historical data...
Loading historical data...

Documentation

Showing up to 5 results
|